SCP
9 8 7 5 4 5 5 4 4 3 2 2 2 1 1 1 1 1 1 1 1 1 1 1 1 1 0 0 0 0 0 0 0 0 0 0 0 0 0 0 0 0 0
9 8 6 5 4 4 4 4 3 3 2 2 2 1 1 1 1 1 1 1 1 1 1 1 1 1 1 0 0 0 0 0 0 0 0 0 0 0 0 0 0 0 0
7 6 5 4 4 4 4 4 3 3 2 2 2 2 1 1 1 1 1 1 1 1 1 1 1 1 1 0 0 0 0 0 0 0 0 0 0 0 0 0 0 0 0
5 4 4 4 4 4 4 4 3 3 2 2 2 2 2 1 1 1 1 1 1 1 1 1 1 1 1 0 0 0 0 0 0 0 0 0 0 0 0 0 0 0 0
4 4 4 4 4 5 5 4 3 2 2 2 2 2 2 2 1 1 1 1 1 1 1 1 1 1 0 0 0 0 0 0 0 0 0 0 0 0 0 0 0 0 0
5 4 4 5 5 5 5 4 3 2 2 2 2 2 2 2 2 1 1 1 1 0 0 1 1 0 0 0 0 0 0 0 0 0 0 0 0 0 0 0 0 0 0
5 5 5 5 5 4 4 3 2 2 1 1 2 2 2 2 2 1 1 1 0 0 1 1 1 0 0 0 0 0 0 0 0 0 0 0 0 0 0 0 0 0 0
5 5 5 5 4 3 3 2 2 1 1 1 1 1 1 1 1 1 1 0 0 0 1 1 1 1 0 1 1 0 0 0 0 0 0 0 0 0 0 0 0 0 0
4 4 4 4 3 3 2 2 2 1 1 1 1 1 1 1 1 1 1 1 0 0 1 1 1 1 1 1 1 1 0 0 0 0 0 0 0 0 0 0 0 0 0
4 3 3 3 3 3 2 2 2 1 1 1 1 1 1 1 1 1 1 1 1 1 1 1 1 1 1 1 1 1 1 1 1 1 0 0 0 0 0 0 0 0 0
4 3 2 3 3 2 2 2 2 1 1 1 1 1 1 1 1 1 1 1 1 2 1 1 1 1 1 1 1 1 1 1 1 1 1 1 1 0 0 0 0 0 0
4 3 2 2 2 2 2 2 1 1 1 1 1 1 1 2 1 1 1 1 2 3 2 1 1 1 1 1 1 1 1 1 1 1 1 1 1 1 1 0 0 0 0
3 3 2 2 2 2 2 2 1 1 1 1 1 1 2 2 1 1 1 1 1 2 1 1 1 1 1 1 1 2 2 1 1 1 1 1 1 1 1 1 0 0 0
4 3 2 2 2 2 2 2 2 2 2 2 2 2 2 1 1 1 1 1 1 1 1 1 1 1 1 1 1 2 2 1 1 1 1 1 1 1 1 1 1 1 1
6 5 3 2 2 2 2 2 2 2 2 2 2 2 2 2 2 2 1 1 1 1 1 1 1 1 1 1 1 2 2 2 2 1 1 1 1 1 1 1 1 1 1
7 6 4 3 3 3 3 2 2 2 2 2 2 2 2 2 2 2 2 2 2 2 2 1 1 1 1 1 1 2 2 2 2 2 2 1 1 1 1 1 1 1 1
7 6 4 3 4 4 3 2 2 2 2 2 2 2 2 2 2 2 2 2 2 2 2 2 1 1 1 1 1 1 2 2 3 2 2 2 2 1 1 0 0 0 0
6 5 4 4 4 4 3 2 2 2 2 2 2 2 2 2 2 2 2 2 2 2 2 1 1 1 1 1 0 0 1 2 2 3 3 3 2 2 1 1 0 0 0
7 6 5 5 5 4 3 2 2 2 2 2 2 2 2 2 2 2 3 3 2 2 1 1 1 1 1 1 0 0 1 1 2 2 2 3 3 2 1 1 1 0 0
9 8 7 6 5 4 4 3 3 3 2 2 2 2 2 2 2 2 3 3 2 2 1 1 1 1 1 1 0 0 1 1 1 2 2 2 2 2 1 1 1 1 1
10 9 8 7 5 4 3 3 3 3 2 2 1 1 1 2 2 2 3 2 2 2 2 2 2 1 1 0 0 0 1 1 2 2 2 2 2 1 0 1 1 1 1
9 7 6 5 3 3 2 2 2 2 1 1 1 1 1 1 1 2 2 2 2 2 2 2 2 1 1 0 0 0 0 1 1 2 2 2 2 1 0 0 1 1 0
9 6 3 2 2 1 1 1 1 1 1 1 1 1 1 1 1 1 2 2 2 2 2 2 2 1 1 0 0 0 0 0 0 1 1 2 2 1 0 0 0 0 0
5 4 2 1 1 1 1 1 1 1 1 1 1 1 1 1 1 1 1 1 1 1 1 1 1 1 0 0 0 0 0 0 0 0 0 1 1 0 0 0 0 0 0
3 2 2 1 1 1 1 1 1 1 1 1 1 1 1 1 0 0 0 1 1 1 0 0 0 0 0 0 0 0 0 0 0 0 0 0 0 0 0 0 0 0 0
2 2 1 1 1 1 1 1 1 1 1 0 0 0 0 0 0 0 0 0 0 0 0 0 0 0 0 0 0 0 0 0 0 0 0 0 0 0 0 1 1 0 0
Wind_Speed
8 9 10 10 10 9 9 9 9 9 8 5 5 4 4 3 3 3 5 5 5 5 5 3 3 3 3 3 4 3 3 1 2 2 2 2 1 2 3 3 4 5 6
8 9 9 9 10 10 9 9 9 9 8 6 4 3 4 3 3 3 4 5 5 5 5 5 4 4 3 3 3 3 2 1 2 3 2 1 3 3 2 2 4 6 5
12 10 9 9 9 9 10 9 9 9 8 7 4 3 3 2 2 2 3 4 5 5 5 5 5 4 4 4 4 4 4 2 1 2 4 3 3 2 3 2 3 4 4
10 11 11 9 10 9 8 8 8 8 8 8 7 7 6 5 5 4 3 4 5 5 5 5 5 5 4 4 4 4 3 4 2 1 1 3 4 3 1 2 2 3 4
12 12 12 11 9 9 8 8 8 8 7 8 8 7 5 4 3 3 4 4 4 5 6 5 5 5 4 5 4 4 3 3 3 2 1 1 1 2 2 2 2 2 2
11 10 9 8 7 8 8 8 8 7 7 7 7 7 7 6 5 5 5 4 3 3 5 5 5 5 4 5 5 4 5 3 3 3 2 2 2 2 2 2 2 2 3
11 10 10 9 9 9 9 8 8 7 7 7 7 7 7 7 7 6 6 5 3 3 5 5 5 4 5 5 5 4 4 4 4 3 2 2 3 2 3 3 2 2 2
9 11 11 11 10 10 9 9 8 7 7 7 6 6 6 5 4 5 5 5 4 4 5 5 5 5 5 5 4 3 4 3 4 4 3 2 2 2 3 3 3 1 2
9 9 9 9 9 9 9 9 8 6 7 7 6 5 5 5 5 5 4 4 3 4 5 5 5 5 5 5 5 3 4 3 4 3 3 2 1 1 2 2 3 4 2
8 8 8 9 8 8 7 7 7 7 6 6 5 5 5 5 5 4 5 4 4 4 4 5 5 5 5 5 5 4 3 4 3 3 3 2 1 1 1 1 2 3 4
9 8 8 7 7 7 7 7 6 5 5 5 4 4 4 4 4 4 5 5 4 4 4 5 5 5 5 4 4 4 4 4 3 3 3 3 2 1 1 1 1 2 2
9 9 8 8 8 7 7 6 6 5 5 5 4 4 3 4 4 4 4 4 4 4 4 4 4 4 4 4 5 5 5 5 4 4 3 3 2 2 2 1 1 1 2
9 8 8 8 8 8 7 6 6 5 4 4 4 3 3 3 3 3 3 3 3 3 3 3 4 3 3 4 4 5 5 4 4 4 3 3 3 2 2 2 1 1 1
10 9 7 7 7 7 7 6 6 5 5 4 4 3 3 3 3 3 3 3 3 3 3 3 3 2 2 3 3 4 4 3 3 3 3 3 3 3 3 2 2 1 1
11 9 8 7 7 6 6 6 6 5 5 5 4 4 3 3 3 3 3 3 3 3 3 2 2 1 1 2 3 3 4 3 3 2 2 2 3 3 2 2 2 2 1
11 10 8 8 7 7 6 6 5 5 5 5 4 3 3 3 3 3 3 3 3 3 3 2 2 2 1 2 4 4 3 3 3 2 1 1 2 2 3 3 3 3 3
10 9 8 7 6 6 6 6 5 5 5 4 4 4 4 4 3 3 4 3 3 3 3 3 3 2 2 3 4 5 4 3 2 2 1 1 1 2 2 3 4 4 4
9 9 7 6 5 5 5 5 5 5 5 4 4 4 4 4 3 4 4 4 3 3 3 3 3 3 3 4 6 7 5 4 3 2 2 2 2 2 3 4 4 4 4
8 7 6 6 6 6 5 6 5 5 5 4 4 4 4 4 4 4 4 3 4 4 4 3 4 4 3 4 5 7 5 5 4 4 3 3 3 4 6 6 6 5 4
9 7 6 7 7 6 7 7 6 5 4 3 3 3 4 4 4 4 4 4 5 5 5 5 4 4 4 4 6 6 4 5 4 4 5 7 5 6 6 5 5 5 3
9 9 8 7 6 6 7 7 6 5 4 4 5 5 4 4 5 4 4 5 5 6 6 6 5 5 5 6 7 6 4 5 5 4 3 4 8 9 9 7 5 5 4
9 8 8 7 5 6 7 7 6 5 5 6 6 6 5 5 5 6 5 5 6 7 6 6 6 5 5 7 7 9 8 7 6 4 3 4 9 11 10 8 9 9 7
8 7 8 7 5 5 6 7 5 5 6 7 7 6 7 6 5 5 5 5 5 5 5 5 5 4 4 6 10 10 10 10 6 5 8 9 10 10 9 11 11 8 5
8 7 8 8 6 5 5 6 5 5 7 8 7 6 7 7 7 6 5 5 4 5 5 5 5 4 4 4 4 5 6 8 8 6 8 11 12 10 9 8 7 5 5
6 7 8 7 6 6 6 5 5 6 8 8 7 7 7 8 8 8 7 5 4 3 5 4 4 5 4 3 5 5 5 4 5 6 6 6 6 6 6 5 5 5 5
7 8 8 7 6 6 6 5 5 6 8 7 6 6 6 6 6 7 8 14 12 13 12 10 8 6 7 9 10 11 10 9 9 8 6 5 5 5 4 5 5 5 4
Wind_Direction
159 150 152 152 150 151 155 158 158 159 153 152 158 155 163 163 162 179 178 176 177 171 162 164 162 149 151 161 149 132 124 120 121 87 37 349 322 211 206 199 191 202 204
147 150 152 157 159 161 162 161 163 163 163 163 160 153 152 157 165 180 186 187 181 175 174 167 167 160 153 153 145 131 126 135 138 129 111 10 339 314 240 213 200 205 203
157 158 164 166 162 164 168 167 164 163 161 156 140 127 113 116 155 189 190 194 185 179 172 172 169 166 162 169 170 156 147 158 175 152 146 154 215 276 304 252 220 201 198
161 166 167 166 169 170 165 158 160 161 161 159 160 163 169 179 192 186 185 192 190 181 178 174 173 174 172 175 184 170 159 151 168 198 182 172 163 161 273 310 276 230 211
167 172 171 169 168 165 163 160 160 166 167 168 169 172 180 185 179 173 180 196 199 191 186 179 176 176 177 182 180 165 164 159 163 174 175 157 148 150 154 243 287 286 240
165 164 162 152 157 159 160 161 166 174 175 174 176 179 180 181 176 184 189 199 200 199 193 183 180 180 181 184 185 177 171 171 165 170 168 164 168 187 171 196 234 248 263
158 155 154 156 163 164 166 166 169 174 176 178 180 182 184 184 186 188 194 196 197 204 201 194 184 183 188 186 179 175 176 175 171 178 182 178 187 177 168 169 199 234 275
163 165 166 166 168 168 167 167 170 171 176 180 183 184 182 183 192 192 187 194 198 201 195 192 190 189 186 186 175 177 187 181 182 186 180 178 196 183 178 170 159 180 295
165 167 162 162 162 165 168 168 168 170 176 181 181 183 185 186 191 190 184 186 195 199 193 187 189 190 186 183 174 182 189 180 189 192 187 187 199 187 188 174 164 160 196
158 159 157 158 158 159 157 157 163 172 178 181 182 181 184 186 184 181 186 187 191 198 186 185 189 188 187 185 185 184 190 185 196 191 186 192 194 173 166 169 169 167 173
159 159 155 151 149 148 150 155 161 161 167 176 178 175 181 185 184 186 188 187 186 189 186 184 183 184 188 187 178 180 179 187 201 202 196 206 199 192 198 158 149 162 159
155 151 147 143 143 149 154 159 163 165 171 173 170 177 177 175 179 187 189 181 183 182 179 174 171 180 183 182 185 189 185 189 199 205 201 219 209 206 202 173 171 181 178
147 143 145 147 152 156 158 162 165 168 167 164 165 172 174 170 177 177 169 165 170 168 168 162 168 176 179 184 192 185 185 191 200 197 196 213 197 209 209 186 189 207 191
148 145 148 153 157 159 159 162 167 168 164 161 163 169 174 170 167 155 145 150 162 165 162 163 164 171 179 182 186 178 178 183 185 184 184 188 186 201 203 192 206 202 172
148 151 153 154 153 155 156 159 163 166 164 160 161 167 169 164 149 143 146 148 153 163 158 147 142 140 153 176 171 165 163 162 168 172 169 156 143 153 172 179 190 173 154
156 157 152 147 151 155 154 151 154 158 147 149 158 157 145 136 136 145 145 142 144 140 129 127 134 128 163 137 146 150 147 142 151 165 170 139 116 104 108 111 114 130 154
149 148 147 149 148 149 148 148 150 140 137 144 146 143 143 144 152 154 142 141 142 131 129 136 131 124 112 120 129 132 130 121 124 134 132 116 77 96 102 87 76 64 63
138 137 141 137 128 123 127 133 128 128 136 141 141 141 142 146 146 141 142 141 131 126 120 117 117 111 92 109 126 126 120 110 101 99 113 117 98 90 109 104 84 65 45
122 123 128 121 112 110 113 113 111 113 116 124 132 139 140 137 136 137 140 138 125 113 103 102 101 100 79 90 121 126 111 100 83 71 75 102 107 92 104 106 101 83 55
110 110 106 102 101 99 100 99 97 99 101 106 112 115 128 135 136 136 131 117 112 112 107 90 82 87 81 84 113 125 116 105 92 66 55 62 78 84 98 111 113 103 86
106 106 101 98 102 105 103 100 96 91 90 88 88 85 90 105 112 111 108 110 111 109 103 94 77 70 69 74 87 105 114 119 107 87 61 50 71 76 76 83 90 102 102
99 102 102 94 88 99 109 106 100 96 90 87 85 81 78 85 94 101 101 101 108 106 101 93 79 60 54 61 76 85 92 102 101 94 78 66 67 70 70 73 74 79 81
99 100 102 95 81 79 99 106 100 101 99 93 88 84 79 75 77 90 101 100 99 104 104 99 89 70 55 55 67 77 82 85 88 88 87 80 73 68 66 67 71 73 73
107 106 104 101 89 78 85 99 104 104 104 100 92 85 82 75 67 63 68 86 93 102 104 103 99 85 64 54 59 72 76 76 81 81 75 72 69 67 64 59 56 58 68
110 108 108 107 100 92 90 94 100 104 101 97 95 89 84 84 75 66 53 62 57 95 114 111 114 110 93 65 83 93 86 87 93 94 78 68 65 63 58 56 53 53 56
108 107 106 106 104 99 95 89 94 108 112 106 100 97 96 93 94 93 75 54 66 70 76 88 97 85 94 95 87 86 88 91 96 90 85 80 76 76 75 73 62 54 53